Regional Weather Roundup
Issued by NWS

Home | Current Version | Previous Version | Graphics & Text | Print | Product List | Glossary On
Versions: 1 2 3 4 5 6 7 8 9 10 11 12 13 14 15 16 17 18 19 20 21 22 23 24 25 26 27 28 29 30 31 32 33 34 35 36 37 38 39 40 41 42 43 44 45 46 47 48 49 50
000
ASUS43 KFSD 041502
RWRSD

WEATHER ROUNDUP FOR SOUTH DAKOTA
NATIONAL WEATHER SERVICE SIOUX FALLS SD
1000 AM CDT FRI SEP 04 2015

NOTE: "FAIR" INDICATES FEW OR NO CLOUDS BELOW 12,000 FEET WITH NO
SIGNIFICANT WEATHER AND/OR OBSTRUCTIONS TO VISIBILITY.


SDZ001>005-009-010-012>017-041600-
NORTHWEST AND NORTH CENTRAL SOUTH DAKOTA

CITY           SKY/WX    TMP DP  RH WIND       PRES   REMARKS
BUFFALO          N/A     65  61  87 N7        29.76S
MOBRIDGE       CLOUDY    72  70  93 S7        29.73R
$$

SDZ012>016-024>037-041>051-057-063-072>074-041600-
SOUTHWEST AND SOUTH CENTRAL SOUTH DAKOTA

CITY           SKY/WX    TMP DP  RH WIND       PRES   REMARKS
RAPID CTY ARPT MOSUNNY   72  55  55 SE3       29.82R
PIERRE         MOSUNNY   76  66  71 SE8       29.76R
CUSTER         SUNNY     73  44  35 CALM      29.97S
PHILIP         SUNNY     80  62  54 SE3       29.78S
PINE RIDGE     SUNNY     75  59  57 SW5       29.85S
WINNER         FAIR      79  64  60 S9        29.79R
$$

SDZ004>011-016>023-039-040-041600-
NORTHEAST SOUTH DAKOTA

CITY           SKY/WX    TMP DP  RH WIND       PRES   REMARKS
ABERDEEN       LGT RAIN  72  67  84 NE3       29.76F
WATERTOWN      CLOUDY    74  69  85 S14       29.87R
BROOKINGS      PTSUNNY   75  68  78 S12       29.88R
$$

SDZ017-020-022-023-036>040-048>070-041600-
SOUTHEAST SOUTH DAKOTA

CITY           SKY/WX    TMP DP  RH WIND       PRES   REMARKS
SIOUX FALLS    PTSUNNY   78  69  73 S13       29.87R
HURON          CLOUDY    71  68  90 SE9       29.80R
CHAMBERLAIN    PTSUNNY   76  68  74 SE15G22   29.78F
MITCHELL       CLOUDY    77  68  73 S12       29.81F
YANKTON        CLOUDY    75  66  73 SW14G22   29.83F
$$

ABBREVIATIONS USED IN REMARKS
   TC - TEMPERATURE IN CELSIUS
  WCI - WIND CHILL INDEX
   HX - HEAT INDEX
  VSB - VISIBILITY




USA.gov is the U.S. government's official web portal to all federal, state and local government web resources and services.